Lid_Strength_Index
3 3 3 4 4 3 3 3 3 3 3 4 4 4 3 4 5 7 12 8 3 -1 -1 1 2 2 3 5 4 5 11 12 11 10 10 7 8 5 4 6 5 4 5 4 2
3 3 4 4 4 4 4 4 3 3 3 3 4 4 3 4 6 11 5 0 0 -1 2 3 5 4 6 6 6 8 11 11 9 8 8 7 7 7 7 7 7 6 4 3 3
3 3 4 4 4 4 4 4 3 3 3 4 3 3 3 4 8 11 -0 -1 -1 -1 1 2 3 5 7 6 7 8 11 8 7 8 6 7 7 6 7 9 7 7 6 4 4
3 3 4 4 4 4 4 4 4 4 4 4 3 3 3 6 12 7 -2 -1 -1 2 4 3 5 7 8 9 7 10 8 7 7 7 6 7 6 7 7 7 4 5 4 4 4
3 4 4 4 4 4 4 4 4 4 4 3 3 2 6 10 9 0 -1 -1 3 5 5 4 6 7 9 8 7 9 8 6 6 7 6 6 7 7 7 5 4 4 4 4 4
4 4 4 4 4 4 4 4 4 4 3 3 2 2 8 10 4 0 1 4 6 5 4 4 5 5 7 8 8 7 7 7 6 7 6 7 7 7 6 4 5 5 5 4 4
4 4 4 4 4 4 4 4 4 4 3 2 2 2 8 9 4 4 5 7 5 3 4 4 5 5 6 8 6 7 9 8 8 7 8 7 9 9 6 5 6 5 5 4 4
4 4 4 4 4 4 4 4 4 3 2 2 2 5 11 6 4 4 6 8 6 3 5 5 5 5 6 5 7 9 9 12 9 8 7 8 12 8 6 6 6 6 5 5 5
4 4 4 4 4 4 4 4 3 2 2 2 7 8 12 3 6 7 6 8 8 8 7 5 7 7 7 10 11 11 15 13 11 8 8 9 11 8 7 6 7 6 5 5 5
4 4 4 4 4 5 5 4 2 3 3 2 3 10 8 6 5 7 6 6 9 11 11 10 9 9 10 11 15 14 14 12 12 9 9 10 10 9 8 8 7 6 6 6 5
4 4 4 4 5 5 6 6 9 10 7 12 10 8 6 6 5 6 7 8 10 12 15 13 13 13 11 10 10 11 12 13 11 9 10 11 10 9 8 8 8 8 8 6 5
5 5 5 5 5 5 8 8 9 7 10 8 8 7 6 6 8 7 6 9 12 14 14 14 15 11 9 8 10 11 13 13 10 9 10 11 11 9 8 8 7 7 7 7 6
5 5 5 5 6 7 8 8 7 8 11 9 8 9 8 7 8 8 7 9 11 14 15 15 12 10 10 13 12 12 13 12 12 10 10 11 12 11 8 7 7 7 7 6 6
5 5 6 6 7 6 7 6 6 8 13 11 11 8 9 8 10 7 7 9 11 12 13 14 11 11 11 11 10 15 9 10 11 13 16 11 17 12 10 9 8 7 7 6 6
5 5 5 7 10 7 7 6 8 9 16 9 10 8 10 10 10 9 8 10 12 12 12 13 12 12 12 12 9 11 9 10 11 13 14 14 16 13 10 11 9 7 7 6 6
5 5 6 7 9 7 6 8 9 13 15 11 11 12 12 11 10 10 10 9 10 12 12 12 10 11 11 10 8 9 12 14 15 13 18 15 15 14 13 11 9 7 6 6 5
6 6 7 7 9 7 7 9 14 15 11 12 13 13 13 13 12 11 12 13 13 15 16 13 12 11 10 12 11 12 14 17 17 17 17 14 15 13 9 8 8 8 6 6 6
7 7 7 7 7 7 8 11 16 12 11 9 11 14 13 12 13 12 13 14 13 13 15 15 15 11 11 11 12 14 14 16 19 19 17 16 16 13 9 7 6 6 6 5 6
7 10 9 7 6 7 9 15 15 12 9 10 11 14 14 13 13 13 13 14 12 12 14 16 15 11 10 11 11 14 15 14 17 20 18 17 15 10 8 8 7 7 6 6 7
11 10 9 7 6 9 12 14 12 10 9 10 13 12 13 12 14 14 13 12 12 11 13 14 15 13 10 11 12 12 12 15 17 19 20 18 17 14 11 9 8 8 7 7 6
11 9 8 8 8 10 14 14 11 9 9 11 12 13 12 12 12 14 13 11 11 11 12 14 14 13 12 13 13 14 16 16 16 18 19 20 17 11 9 8 9 8 7 7 6
12 11 8 8 10 14 13 12 10 10 9 11 10 12 13 12 13 13 12 10 7 10 12 13 15 16 13 12 11 13 14 16 16 18 19 19 17 11 7 7 7 7 6 6 6
12 13 9 9 14 15 14 12 11 12 11 12 11 11 11 13 14 12 11 8 7 8 10 12 15 16 14 13 13 14 14 16 17 17 18 18 15 11 11 7 7 7 6 6 6
12 13 11 12 13 14 15 14 13 10 11 11 12 11 11 12 11 12 10 8 7 8 5 9 16 15 15 14 14 13 13 14 15 17 17 17 14 12 11 10 8 6 6 6 6
12 14 13 15 14 14 14 14 13 12 10 10 12 11 11 13 12 12 10 9 8 7 9 11 13 15 14 12 13 13 13 13 15 14 14 12 15 12 11 11 9 6 6 6 6
13 14 13 15 14 14 13 14 11 11 11 12 11 9 11 12 12 12 11 11 11 9 10 11 14 14 14 11 11 12 12 12 13 13 14 13 14 10 9 8 8 7 7 7 6
11 12 13 14 15 16 13 11 10 10 10 9 9 11 12 10 9 8 8 8 9 10 10 11 12 13 16 13 12 14 13 12 13 11 11 15 12 8 9 8 7 7 7 6 6